Cloud_Cover
6 23 5 4 71 100 100 100 100 100 100 100 100 100 100 99 100 100 100 81 100 100 99 100 100 99 100 100 100 100 80 100 100 100 100 100 100 100 100 100 95 100 100 100 100 100 100 100 100 100 97 92 100 100
72 48 5 5 99 100 100 100 100 100 100 100 100 100 100 92 61 22 67 96 92 100 40 8 33 71 83 84 100 100 54 100 100 100 100 100 100 100 100 100 100 100 100 100 100 100 100 100 100 100 96 100 100 100
6 5 5 5 100 100 100 99 100 100 100 96 17 79 99 100 100 100 100 100 78 53 62 5 8 15 5 100 68 86 66 100 100 100 100 100 100 100 100 100 100 100 100 100 100 100 100 100 100 100 100 100 100 100
12 20 5 11 100 100 100 89 88 100 57 72 1 5 5 11 34 11 67 95 51 91 84 5 14 10 20 75 92 100 100 100 100 100 100 100 100 100 100 100 100 100 100 100 100 100 100 100 100 100 100 100 100 100
22 5 14 21 100 100 100 82 30 0 2 0 0 5 5 5 5 5 33 30 5 19 82 18 84 67 99 64 100 100 100 100 100 100 100 100 100 100 100 100 100 100 100 100 100 100 100 100 100 100 98 100 100 100
10 29 91 8 100 100 100 70 16 0 0 0 0 2 5 5 5 96 59 8 5 5 58 47 100 100 100 76 98 100 100 100 100 100 100 100 100 100 100 100 100 100 100 100 100 100 100 100 100 100 100 100 100 100
9 100 74 18 100 100 100 72 73 0 0 0 0 0 0 1 5 6 5 5 5 1 30 53 100 100 100 93 88 100 100 100 100 100 100 100 100 100 100 100 100 100 100 100 100 100 100 100 100 100 100 100 100 100
63 100 100 5 72 100 100 93 100 1 0 0 0 0 0 0 3 0 28 32 43 33 19 82 89 64 86 100 100 88 100 100 94 93 98 100 100 100 100 100 100 100 100 100 100 100 100 100 100 100 100 100 100 100
100 78 76 5 34 100 99 100 100 27 0 0 0 0 2 3 31 62 100 100 96 76 66 99 100 72 84 97 100 100 95 81 100 100 86 99 100 100 100 100 100 100 100 100 100 100 100 100 100 100 100 100 100 100
96 84 66 5 8 100 100 100 81 2 0 0 0 41 55 18 21 100 98 94 96 100 100 100 100 61 46 96 100 100 98 87 65 76 87 97 100 97 100 100 100 100 100 100 100 100 100 100 100 100 100 100 100 100
22 56 20 5 5 96 94 100 39 0 0 0 3 28 23 2 95 96 98 75 50 73 92 89 64 96 80 78 68 96 100 100 100 91 80 46 14 86 71 35 77 100 53 96 100 100 100 100 100 100 100 100 100 100
74 37 5 33 5 52 86 99 15 0 0 0 0 5 20 97 53 2 2 4 17 38 22 5 5 38 84 42 62 70 97 90 99 82 73 76 33 37 8 78 57 6 31 61 100 94 88 100 100 100 100 95 100 100
33 7 45 5 5 17 5 7 30 0 0 3 3 6 81 23 5 5 5 5 20 36 5 57 85 84 94 69 94 62 41 82 7 54 75 10 6 52 88 21 9 87 61 5 10 80 89 78 38 95 94 100 89 100
64 29 81 40 5 5 5 5 54 67 2 0 5 96 5 33 36 73 27 33 73 61 5 6 81 84 64 70 5 5 5 5 5 5 57 5 5 5 5 24 64 5 5 28 5 5 33 19 6 5 37 91 39 38
64 14 5 56 13 5 5 6 90 84 0 1 0 28 5 24 34 25 27 90 48 72 38 54 83 75 92 100 98 34 43 5 4 3 4 4 5 5 5 5 5 5 5 5 5 5 11 94 96 22 3 4 1 1
6 73 17 5 5 6 5 71 73 5 0 0 2 5 5 59 75 34 13 35 81 98 100 100 97 83 98 99 100 99 89 10 5 5 9 8 9 5 9 48 5 5 5 5 5 5 5 5 25 50 24 2 1 0
11 4 68 5 5 59 20 3 0 0 0 0 11 98 100 100 98 90 81 6 29 36 98 94 82 93 98 100 100 97 40 64 100 92 88 71 94 100 44 21 5 5 5 5 5 5 5 5 5 5 4 0 0 0
65 4 5 5 68 92 61 6 0 0 5 50 92 100 80 97 100 100 67 91 100 100 100 100 100 100 100 100 100 100 100 100 100 100 100 100 21 0 0 3 62 84 43 63 53 5 5 1 3 5 5 5 0 0
4 6 10 31 80 12 4 0 0 0 2 4 2 5 5 50 100 88 89 91 92 94 100 100 100 100 100 100 100 100 100 100 100 100 100 100 50 2 1 5 53 95 79 97 93 6 5 4 0 3 5 4 2 0
5 43 5 24 41 29 1 0 0 0 0 1 2 5 5 21 20 5 64 56 71 86 85 100 100 100 100 100 100 100 100 100 100 100 100 94 4 0 0 0 4 27 98 99 100 50 5 5 5 4 5 5 0 0
24 64 52 25 48 5 0 0 0 0 2 4 4 20 5 22 5 66 57 5 5 6 27 96 100 100 81 83 81 8 70 88 100 94 86 7 24 4 0 0 0 0 36 79 100 100 100 67 37 5 5 5 0 0
99 9 11 11 31 2 0 0 3 2 0 0 2 6 71 81 18 17 8 5 5 94 41 30 5 5 78 100 67 56 86 55 100 90 55 47 20 23 2 0 1 6 49 54 52 29 92 99 100 47 45 5 5 4
38 8 28 49 3 29 30 3 1 0 0 1 4 5 34 30 5 5 5 5 83 51 92 100 99 36 66 44 21 6 34 71 99 81 90 100 97 95 98 54 22 5 3 4 4 40 87 99 99 92 54 5 5 5
10 5 16 5 5 14 2 4 2 29 70 5 2 5 19 53 8 5 5 5 9 68 100 94 85 36 3 0 0 3 5 5 48 100 93 100 97 92 70 98 40 5 84 11 4 50 88 89 92 81 62 83 20 5
49 5 9 38 0 0 0 5 82 91 5 5 5 5 5 21 64 84 21 5 1 2 4 1 12 5 3 5 5 28 87 92 68 14 94 100 99 100 82 100 67 100 100 100 95 8 22 68 98 78 9 5 81 70
83 9 29 0 0 0 5 7 77 6 5 23 5 6 5 12 55 100 5 5 5 5 7 13 5 5 5 5 4 5 24 23 17 100 94 100 100 100 73 26 62 100 100 100 100 75 39 80 50 47 76 42 5 55
49 5 0 0 1 5 8 25 5 5 5 5 5 5 5 5 33 60 5 0 0 12 39 13 5 34 86 46 3 0 0 1 10 69 99 100 100 78 86 88 100 57 99 89 65 7 5 34 14 15 28 5 5 8
5 2 0 1 3 6 9 3 0 3 5 5 5 5 5 5 52 52 5 1 15 26 0 0 0 0 0 0 0 0 0 0 0 12 98 75 58 93 100 19 93 92 85 48 5 5 5 44 26 11 19 47 68 14
5 2 4 0 2 5 3 0 6 34 5 5 5 5 5 31 7 10 5 2 7 0 0 0 0 0 0 0 0 0 0 0 2 4 6 93 95 64 90 87 71 64 80 5 7 3 5 5 19 30 7 30 5 5
0 1 5 5 5 5 5 8 6 33 9 5 5 33 48 53 20 6 12 3 0 0 0 0 0 0 0 0 0 0 0 0 0 0 0 0 4 62 71 5 5 5 5 5 5 5 6 7 16 28 5 5 42 90
2 5 5 5 6 16 59 12 5 5 5 8 23 92 94 76 66 95 35 16 0 0 0 0 0 0 0 0 0 0 0 0 0 0 0 0 0 1 5 5 5 5 5 5 36 55 18 5 52 41 34 5 5 23
5 11 6 16 15 33 42 32 56 41 98 100 100 100 100 100 100 100 92 55 5 0 0 0 0 0 0 0 0 0 0 0 4 5 5 5 4 5 5 0 1 4 5 5 5 7 7 5 5 7 60 40 5 21
37 7 5 5 5 5 5 5 6 34 46 90 100 100 100 100 100 100 100 66 9 0 0 0 0 0 0 0 0 0 0 0 0 9 0 0 0 0 1 4 5 5 5 5 12 36 8 5 5 5 6 5 14 62